Regional Weather Roundup
Issued by NWS

Home | Current Version | Previous Version | Graphics & Text | Print | Product List | Glossary On
Versions: 1 2 3 4 5 6 7 8 9 10 11 12 13 14 15 16 17 18 19 20 21 22 23 24 25 26 27 28 29 30 31 32 33 34 35 36 37 38 39 40 41 42 43 44 45 46 47 48 49 50
702
ASUS43 KLOT 252205
RWRIL

ILLINOIS REGIONAL WEATHER ROUNDUP
NATIONAL WEATHER SERVICE CHICAGO/ROMEOVILLE IL
500 PM CDT WED APR 25 2018

NOTE: "FAIR" INDICATES FEW OR NO CLOUDS BELOW 12,000 FEET WITH NO
SIGNIFICANT WEATHER AND/OR OBSTRUCTIONS TO VISIBILITY.

* THESE STATIONS ARE NOT UNDER NWS QUALITY CONTROL. THEY ALSO MAY NOT
  REPORT WEATHER SUCH AS PRECIPITATION OR FOG.

ILZ001-002-007-009-015-016-024-252300-
NORTHWEST ILLINOIS

CITY           SKY/WX    TMP DP  RH WIND       PRES   REMARKS
MOLINE         FAIR      67  30  25 NE9       30.00F
STERLING*      FAIR      64  32  30 N13G21    30.01F
SAVANNA*       FAIR      63  32  31 N7        30.02F
$$

ILZ003-004-008-010-011-017-018-252300-
NORTH CENTRAL ILLINOIS

CITY           SKY/WX    TMP DP  RH WIND       PRES   REMARKS
ROCKFORD       FAIR      60  29  30 NE7       30.03F
FREEPORT*      FAIR      61  31  31 N5        30.03F
ROCHELLE*      FAIR      61  31  31 NW6       30.02S
DE KALB*       FAIR      61  31  32 N10G17    30.02S
PERU*          FAIR      64  30  27 N7        30.01S
$$

ILZ005-006-012>014-019>023-252300-
NORTHEAST ILLINOIS

CITY           SKY/WX    TMP DP  RH WIND       PRES   REMARKS
CHICAGO-OHARE  FAIR      49  30  48 NE12      30.05S
CHICAGO-MIDWAY FAIR      48  31  51 NE14      30.05F
AURORA         FAIR      60  34  37 E14       30.00F
LANSING*       FAIR      46  34  62 N13G18    30.06S
JOLIET*        FAIR      58  35  41 E10       30.02R
WAUKEGAN       FAIR      44  32  62 NE12G20   30.06S
DUPAGE AIRPORT FAIR      52  34  50 E14       30.02S
KANKAKEE*      FAIR      56  32  39 NE13      30.03F
WHEELING       FAIR      46  29  51 NE13      30.08S
MORRIS*        FAIR      63  31  30 NE6       29.99F
ROMEOVILLE*    FAIR      55  34  44 E13       30.03R
NORTHERLY ISL    N/A     43  33  68 MISG        N/A
$$

LMZ740>746-252300-
SOUTHERN LAKE MICHIGAN

STATION/POSITION SKY/WX   TEMP    WIND        PRES    VSBY  WAVE
                          AIR SEA DIR/SP/G                  HT/PER
                          (F)     (DEG/KT/KT) (MB)    (MI)  (FT/S)
HARRISON CRIB              40      10/ 10/ 11   N/A
BURNHAM HARBOR             42      40/  8/ 12   N/A
CALUMET HARBOR             41      10/  9/ 13 1017.8R
BURNS HARBOR               40      30/ 10/ 12 1018.6S
MICHIGAN CITY              39      20/ 10/ 11   N/A
ST. JOSEPH                 40 42   20/ 14/ 19 1018.3F         5/ 6
$$

ILZ025>027-034>036-040-047-049-050-058-095>099-252300-
WEST-CENTRAL ILLINOIS

CITY           SKY/WX    TMP DP  RH WIND       PRES   REMARKS
QUINCY         CLOUDY    60  39  45 N9        30.02F
GALESBURG*     FAIR      65  34  31 N7        30.02F
MACOMB*        CLOUDY    60  36  40 CALM      30.04F
JACKSONVILLE*  CLOUDY    64  41  43 NW12      30.00S
PITTSFIELD*    CLOUDY    64  44  47 N9        30.01F
$$

ILZ028>032-037-038-041>044-048-051>054-059>061-252300-
CENTRAL ILLINOIS

CITY           SKY/WX    TMP DP  RH WIND       PRES   REMARKS
PONTIAC        FAIR      63  30  29 N8        30.00S
BLOOMINGTON    FAIR      63  37  38 N7        30.01F
DECATUR        FAIR      65  42  43 NE8       29.99F
PEORIA         FAIR      63  38  39 SE6       30.00F
LACON*         FAIR      63  32  31 CALM      30.00S
LINCOLN*       FAIR      65  40  40 N7        30.00S
SPRINGFIELD    FAIR      67  43  41 N9        30.00F
TAYLORVILLE    FAIR      66  43  43 NE6       29.99S
$$

ILZ033-039-045-046-055>057-062-063-252300-
EAST-CENTRAL ILLINOIS

CITY           SKY/WX    TMP DP  RH WIND       PRES   REMARKS
CHAMPAIGN      FAIR      62  37  39 NE12      30.00S
DANVILLE*      FAIR      59  35  41 NE14      29.98S
RANTOUL*       FAIR      61  37  40 NE7G16    30.01S
MATTOON        FAIR      65  44  46 N10       29.97S
PARIS*         FAIR      64  41  42 N10       29.99R
$$

ILZ079-100>102-252300-
SOUTHWEST ILLINOIS

CITY           SKY/WX    TMP DP  RH WIND       PRES   REMARKS
ALTON          PTSUNNY   64  52  63 N6        29.98S
BELLEVILLE     CLOUDY    66  53  63 NE7       29.95F
CAHOKIA*       CLOUDY    66  53  63 N12       29.97F
SPARTA*        CLOUDY    66  56  68 NW3       29.97S
$$

ILZ064>066-069>071-074>076-080>082-084>086-088>090-092>094-252300-
SOUTH-CENTRAL ILLINOIS

CITY           SKY/WX    TMP DP  RH WIND       PRES   REMARKS
CARBONDALE     FAIR      69  50  50 N3        29.94F
CAIRO*         PTSUNNY   68  54  59 S6        29.95S
EFFINGHAM*     FAIR      65  50  59 NW7       29.99S
MARION         PTSUNNY   68  48  49 N5        29.96F
MT. VERNON       N/A     67  51  56 NE5       29.95F
CENTRALIA*     CLOUDY    67  54  62 N7        29.95F
SALEM*         FAIR      67  51  56 NE7       29.96F
METROPOLIS*    FAIR      70  50  49 CALM      29.95F
$$

ILZ067-068-072-073-078-083-087-091-252300-
SOUTHEAST ILLINOIS

CITY           SKY/WX    TMP DP  RH WIND       PRES   REMARKS
FLORA*         FAIR      67  52  57 N8        29.97F
FAIRFIELD*     FAIR      67  50  54 N5        29.94F
HARRISBURG*    FAIR      69  52  55 CALM      29.96S
ROBINSON*      FAIR      64  48  55 N7        29.97S
CARMI*         FAIR      68  51  54 N8        29.95S
$$

ABBREVIATIONS USED IN REMARKS
   TC - TEMPERATURE IN CELSIUS
  WCI - WIND CHILL INDEX
   HX - HEAT INDEX
  VSB - VISIBILITY
$$





USA.gov is the U.S. government's official web portal to all federal, state and local government web resources and services.